Miscellaneous Local Product
Issued by NWS Hastings, NE

Home | Current Version | Previous Version | Graphics & Text | Print | Product List | Glossary On
Versions: 1 2 3 4 5 6 7 8 9 10 11 12 13 14 15 16 17 18 19 20 21 22 23 24 25 26 27 28 29 30 31 32 33 34 35 36 37 38 39 40 41 42 43 44 45 46 47 48 49 50
000
AXUS43 KGID 261002
MISGRI

GID CWA HOURLY WEATHER ROUNDUP
NATIONAL WEATHER SERVICE HASTINGS NE
400 AM CST WED NOV 26 2014

NOTE: "FAIR" INDICATES FEW OR NO CLOUDS BELOW 12,000 FEET WITH NO
SIGNIFICANT WEATHER AND/OR OBSTRUCTIONS TO VISIBILITY.

...SOUTH CENTRAL NEBRASKA...

CITY           SKY/WX    TMP DP  RH WIND       PRES   REMARKS
GRAND ISLAND   PTCLDY    35  26  69 NW18      29.95R WCI  24
HASTINGS       PTCLDY    36  24  62 NW18      29.96R WCI  26
KEARNEY        CLOUDY    37  21  52 W22G29    29.99R WCI  27
ORD            FLURRIES  35  25  66 NW25G35   29.96R WCI  23
YORK           PTCLDY    34  28  80 NW17      29.91S WCI  23
AURORA         PTCLDY    34  27  75 NW14      29.93S WCI  25
LEXINGTON      CLOUDY    37  23  57 NW23      30.01R WCI  25
HOLDREGE       CLOUDY    37  27  67 NW17G23   29.99R WCI  28
HEBRON         CLEAR     37  27  67 NW10G18   29.95S WCI  30

...NEBRASKA PANHANDLE...

CITY           SKY/WX    TMP DP  RH WIND       PRES   REMARKS
CHADRON        CLOUDY    35  22  58 NE10      30.16R WCI  27
ALLIANCE       CLOUDY    30  20  66 NW17G26   30.09R WCI  18
SCOTTSBLUFF    CLOUDY    31  25  78 NW12      30.15R WCI  22
SIDNEY         CLOUDY    29  24  82 N24       30.10R WCI  15

...WESTERN AND NORTH CENTRAL NEBRASKA...

CITY           SKY/WX    TMP DP  RH WIND       PRES   REMARKS
VALENTINE      CLOUDY    27  20  75 NW30G43   30.06R WCI  11
AINSWORTH      CLOUDY    29  23  77 NW24G33   30.01R WCI  15
ONEILL         CLOUDY    36  30  79 NW28G38   29.93R WCI  23
BROKEN BOW     CLOUDY    37  22  54 NW28G37   29.98R WCI  25
IMPERIAL       CLOUDY    35  24  64 NW17      30.08R WCI  25
NORTH PLATTE   CLOUDY    34  23  64 NW20G28   30.05R WCI  23
MCCOOK         CLOUDY    37  29  72 W13       30.06R WCI  29

...EASTERN NEBRASKA...

CITY           SKY/WX    TMP DP  RH WIND       PRES   REMARKS
NORFOLK        CLOUDY    38  32  79 NW17      29.87R WCI  28
SO SIOUX CITY  CLOUDY    36  33  89 NW14      29.84S WCI  27
TEKAMAH        CLOUDY    38  34  85 NW14      29.83S WCI  30
COLUMBUS       CLOUDY    37  27  65 NW15G22   29.90R WCI  28
ALBION         CLOUDY    37  28  69 NW17G25   29.90R WCI  27
OMAHA EPPLEY   CLOUDY    39  35  86 NW9       29.85S WCI  33
OFFUTT AFB     CLOUDY    38  35  88 W10       29.84S WCI  31
MILLARD        CLOUDY    38  34  85 NW14      29.84S WCI  30
LINCOLN        MOCLDY    37  30  75 W13       29.90S WCI  29
NEBRASKA CITY  CLOUDY    38  33  80 W12       29.86S WCI  31
BEATRICE       CLEAR     35  31  85 W12       29.91S WCI  26
FALLS CITY     CLOUDY    40  34  79 W13       29.88S WCI  32

...NORTHERN KANSAS...

CITY           SKY/WX    TMP DP  RH WIND       PRES   REMARKS
GOODLAND       LGT SNOW  33  31  92 NW21      30.12R FOG     WCI  21
HILL CITY      CLOUDY    41  30  65 NW13G23   30.06R
NORTON         PTSUNNY   37  27  65 W13G23    30.04R WCI  29
PHILLIPSBURG   CLOUDY    39  34  81 W14       30.03S WCI  31
SMITH CENTER   MOCLDY    39  27  60 W18       30.01S WCI  30
BELOIT         PTCLDY    43  28  56 NW13      29.99F
HAYS           CLOUDY    41  27  56 NW17G23   30.04R
RUSSELL        CLOUDY    42  27  55 NW10      30.01R
CONCORDIA      MOCLDY    41  30  65 W12       29.97R
SALINA         CLOUDY    44  30  57 NW8       30.00R
TOPEKA         LGT RAIN  42  36  79 SW5       29.94F



USA.gov is the U.S. government's official web portal to all federal, state and local government web resources and services.